This demonstration page uses our WeatherBlox Daily Observations layout. Learn more.

38.89511, -77.03637

Hourly Observations for April 23, 2015

Temp ( °F °C ) Dew Point ( °F °C ) Humidity (%) Winds ( mph kmh ) Pressure ( in mb ) Visibility ( mi km ) Precip ( " mm )
12:52 am 00:52 Mostly Cloudy 52 11 32 0 47 47 NNW 12 19 29.83 1010 10 16.09344 0 0
1:52 am 01:52 Mostly Clear 50 10 27 -3 40 40 NW 17 28 29.83 1010 10 16.09344 0 0
2:52 am 02:52 Clear 48 9 25 -4 40 40 WNW 13 20 29.83 1010 10 16.09344 0 0
3:52 am 03:52 Clear 48 9 23 -5 37 37 W 9 15 29.85 1011 10 16.09344 0 0
4:52 am 04:52 Clear 46 8 21 -6 37 37 WNW 8 13 29.85 1011 10 16.09344 0 0
5:52 am 05:52 Mostly Cloudy 46 8 25 -4 43 43 WSW 5 7 29.85 1011 10 16.09344 0 0
6:52 am 06:52 Mostly Cloudy 45 7 27 -3 49 49 SW 7 11 29.88 1012 10 16.09344 0 0
7:52 am 07:52 Mostly Cloudy 48 9 25 -4 40 40 SW 8 13 29.88 1012 10 16.09344 0 0
8:52 am 08:52 Partly Cloudy 52 11 25 -4 35 35 W 10 17 29.88 1012 10 16.09344 0 0
9:52 am 09:52 Mostly Cloudy 52 11 23 -5 32 32 NW 15 24 29.88 1012 10 16.09344 0 0
10:52 am 10:52 Mostly Cloudy 55 13 25 -4 31 31 W 17 28 29.88 1012 10 16.09344 0 0
11:52 am 11:52 Mostly Cloudy 57 14 27 -3 31 31 NNW 17 28 29.85 1011 10 16.09344 0 0
12:52 pm 12:52 Mostly Cloudy 55 13 25 -4 31 31 WNW 17 28 29.85 1011 10 16.09344 0 0
1:52 pm 13:52 Mostly Cloudy 57 14 25 -4 29 29 WNW 16 26 29.83 1010 10 16.09344 0 0
2:52 pm 14:52 Mostly Cloudy 57 14 25 -4 29 29 W 12 19 29.83 1010 10 16.09344 0 0
3:52 pm 15:52 Cloudy 57 14 27 -3 31 31 WNW 10 17 29.83 1010 10 16.09344 0 0
4:52 pm 16:52 Cloudy 59 15 27 -3 29 29 NW 18 30 29.83 1010 10 16.09344 0 0
5:52 pm 17:52 Mostly Cloudy 57 14 25 -4 29 29 W 12 19 29.83 1010 10 16.09344 0 0
6:52 pm 18:52 Mostly Cloudy 57 14 27 -3 31 31 NW 10 17 29.85 1011 10 16.09344 0 0
7:52 pm 19:52 Mostly Cloudy 55 13 27 -3 33 33 NNW 15 24 29.88 1012 10 16.09344 0 0
8:52 pm 20:52 Mostly Cloudy 54 12 28 -2 38 38 N 13 20 29.91 1013 10 16.09344 0 0
9:52 pm 21:52 Mostly Cloudy 52 11 28 -2 41 41 NNW 13 20 29.94 1014 10 16.09344 0 0
10:52 pm 22:52 Mostly Cloudy 50 10 28 -2 43 43 N 16 26 29.94 1014 10 16.09344 0 0
11:52 pm 23:52 Mostly Cloudy 48 9 28 -2 46 46 NNW 9 15 29.94 1014 10 16.09344 0 0

Powered by AerisWeather